DW7649 Weather Reports


Display with metric or nautical units.
time (UTC)temp
F
wind
direction
speed
MPH
gust
MPH
rain 1hr
in
rain 24hr
in
rain mn
in
humidity
%
barometer
mb
20200403101927 45 351 2.0 6.0 0.00 0.00 0.00 28 1010.7
20200403101027 46 307 2.0 4.0 0.00 0.00 0.00 28 1010.7
20200403100127 46 336 2.0 8.0 0.00 0.00 0.00 25 1010.5
20200403095227 46 287 2.0 5.0 0.00 0.00 0.00 26 1010.5
20200403094327 46 294 2.0 8.0 0.00 0.00 0.00 26 1010.4
20200403093427 46 321 3.0 8.0 0.00 0.00 0.00 25 1010.4
20200403092527 46 310 3.0 8.0 0.00 0.00 0.00 26 1010.4
20200403091627 46 298 2.0 10.0 0.00 0.00 0.00 26 1010.5
20200403090727 46 314 2.0 5.0 0.00 0.00 0.00 28 1010.5
20200403085827 47 306 3.0 8.0 0.00 0.00 0.00 25 1010.4
20200403084927 47 288 3.0 8.0 0.00 0.00 0.00 23 1010.3
20200403084027 47 308 3.0 8.0 0.00 0.00 0.00 26 1010.3
20200403083127 47 294 4.0 10.0 0.00 0.00 0.00 27 1010.3
20200403082227 47 297 3.0 7.0 0.00 0.00 0.00 26 1010.2
20200403081327 48 301 4.0 11.0 0.00 0.00 0.00 25 1010.2
20200403080427 47 295 5.0 11.0 0.00 0.00 0.00 25 1010.3
20200403075527 47 298 3.0 6.0 0.00 0.00 0.00 27 1010.3
20200403074627 48 299 4.0 9.0 0.00 0.00 0.00 28 1010.3
20200403073727 48 293 3.0 8.0 0.00 0.00 0.00 27 1010.4
20200403072827 49 301 5.0 11.0 0.00 0.00 0.00 26 1010.4
20200403071927 48 301 4.0 11.0 0.00 0.00 0.00 27 1010.3
20200403071027 49 297 4.0 10.0 0.00 0.00 0.00 27 1010.4
20200403070127 49 287 4.0 12.0 0.00 0.00 0.00 28 1010.5
20200403065227 49 304 3.0 9.0 0.00 0.00 0.00 32 1010.6
20200403064326 49 327 2.0 6.0 0.00 0.00 0.00 28 1010.8
20200403063427 50 298 2.0 8.0 0.00 0.00 0.00 29 1010.9
20200403062526 50 339 3.0 8.0 0.00 0.00 0.00 28 1011.0
20200403061627 50 316 3.0 8.0 0.00 0.00 0.00 28 1010.9
20200403060727 49 298 3.0 13.0 0.00 0.00 0.00 30 1010.9
20200403055827 49 335 1.0 4.0 0.00 0.00 0.00 32 1011.0
20200403054926 50 26 1.0 3.0 0.00 0.00 0.00 31 1011.1
20200403054027 50 307 2.0 9.0 0.00 0.00 0.00 34 1011.2
20200403053127 50 307 2.0 11.0 0.00 0.00 0.00 32 1011.3
20200403052227 50 312 2.0 5.0 0.00 0.00 0.00 32 1011.3
20200403051327 50 284 2.0 8.0 0.00 0.00 0.00 32 1011.3
20200403050427 50 286 2.0 8.0 0.00 0.00 0.00 31 1011.4
20200403045527 51 292 2.0 7.0 0.00 0.00 0.00 30 1011.5
20200403044627 52 298 2.0 5.0 0.00 0.00 0.00 30 1011.5
20200403043727 52 300 3.0 7.0 0.00 0.00 0.00 28 1011.5
20200403042826 52 294 3.0 10.0 0.00 0.00 0.00 28 1011.4
20200403041926 53 297 3.0 11.0 0.00 0.00 0.00 27 1011.3
20200403041027 53 313 4.0 11.0 0.00 0.00 0.00 27 1011.3
20200403040126 53 301 3.0 16.0 0.00 0.00 0.00 28 1011.2
20200403035226 53 312 3.0 8.0 0.00 0.00 0.00 30 1011.1
20200403034326 53 275 2.0 9.0 0.00 0.00 0.00 28 1011.1
20200403033426 53 305 2.0 8.0 0.00 0.00 0.00 30 1011.2
20200403032527 54 354 2.0 5.0 0.00 0.00 0.00 28 1011.2
20200403031626 54 302 3.0 10.0 0.00 0.00 0.00 27 1011.0
20200403030726 54 324 3.0 16.0 0.00 0.00 0.00 27 1011.0
20200403025826 54 323 3.0 13.0 0.00 0.00 0.00 27 1011.0
20200403024926 54 285 3.0 13.0 0.00 0.00 0.00 28 1010.9
20200403024026 54 301 4.0 12.0 0.00 0.00 0.00 27 1011.0
20200403023126 54 315 3.0 8.0 0.00 0.00 0.00 29 1011.0
20200403022227 54 314 3.0 8.0 0.00 0.00 0.00 29 1011.0
20200403021326 54 288 2.0 8.0 0.00 0.00 0.00 30 1011.1
20200403020426 55 299 3.0 13.0 0.00 0.00 0.00 29 1011.1
20200403015526 55 324 3.0 9.0 0.00 0.00 0.00 28 1011.1
20200403014627 55 319 2.0 8.0 0.00 0.00 0.00 28 1011.1
20200403013726 56 320 3.0 9.0 0.00 0.00 0.00 27 1011.1
20200403012826 56 311 3.0 9.0 0.00 0.00 0.00 27 1011.0
20200403011926 56 302 3.0 8.0 0.00 0.00 0.00 26 1010.8
20200403011026 56 303 3.0 9.0 0.00 0.00 0.00 27 1010.8
20200403010126 56 299 3.0 13.0 0.00 0.00 0.00 25 1010.8
20200403005226 57 304 3.0 11.0 0.00 0.00 0.00 26 1010.5
20200403004326 57 285 3.0 15.0 0.00 0.00 0.00 27 1010.5
20200403003426 57 300 3.0 10.0 0.00 0.00 0.00 25 1010.4
20200403002526 57 297 3.0 10.0 0.00 0.00 0.00 24 1010.2
20200403001626 58 277 3.0 11.0 0.00 0.00 0.00 26 1010.1
20200403000726 58 305 4.0 18.0 0.00 0.00 0.00 23 1010.1
20200402235826 58 302 4.0 14.0 0.00 0.00 0.00 24 1009.9
20200402234926 58 296 4.0 16.0 0.00 0.00 0.00 23 1009.7
20200402234026 58 291 4.0 13.0 0.00 0.00 0.00 24 1009.6
20200402233126 59 298 5.0 13.0 0.00 0.00 0.00 23 1009.7
20200402232226 59 310 4.0 12.0 0.00 0.00 0.00 22 1009.6
20200402231326 59 302 4.0 12.0 0.00 0.00 0.00 22 1009.6
20200402230426 60 290 4.0 13.0 0.00 0.00 0.00 22 1009.5
20200402225526 60 291 6.0 21.0 0.00 0.01 0.00 20 1009.3
20200402224626 60 299 4.0 14.0 0.00 0.01 0.00 22 1009.6
20200402223726 61 293 4.0 11.0 0.00 0.01 0.00 21 1009.3
20200402222826 61 299 5.0 13.0 0.00 0.01 0.00 19 1009.3
20200402221926 62 296 5.0 15.0 0.00 0.01 0.00 19 1009.4
20200402221026 62 307 4.0 11.0 0.00 0.01 0.00 21 1009.5
20200402220126 62 307 5.0 12.0 0.00 0.01 0.00 20 1009.5
20200402215226 62 309 5.0 12.0 0.00 0.01 0.00 19 1009.4
20200402214326 63 317 4.0 9.0 0.00 0.01 0.00 19 1009.5
20200402213426 62 311 4.0 12.0 0.00 0.01 0.00 21 1009.6
20200402212526 62 324 4.0 16.0 0.00 0.01 0.00 21 1009.5
20200402211626 63 323 3.0 10.0 0.00 0.01 0.00 21 1009.5
20200402210726 62 319 5.0 11.0 0.00 0.01 0.00 19 1009.7
20200402205826 62 329 5.0 12.0 0.00 0.01 0.00 20 1009.7
20200402204926 63 293 4.0 9.0 0.00 0.01 0.00 21 1009.8
20200402204026 62 305 6.0 15.0 0.00 0.01 0.00 18 1009.9
20200402203126 62 306 5.0 12.0 0.00 0.01 0.00 19 1009.9
20200402202227 63 302 5.0 16.0 0.00 0.01 0.00 17 1010.0
20200402201326 62 313 4.0 19.0 0.00 0.01 0.00 19 1010.0
20200402200426 62 290 5.0 19.0 0.00 0.01 0.00 21 1010.0
20200402195526 62 297 7.0 17.0 0.00 0.01 0.00 19 1010.2
20200402194054 63 317 4.0 9.0 0.00 0.01 0.00 20 1010.4
20200402193154 62 339 5.0 11.0 0.00 0.01 0.00 20 1010.6
20200402192254 62 299 5.0 13.0 0.00 0.01 0.00 20 1010.7
20200402191354 62 310 5.0 18.0 0.00 0.01 0.00 21 1010.8
20200402190454 61 325 5.0 18.0 0.00 0.01 0.00 21 1011.0
20200402185554 61 303 6.0 14.0 0.00 0.01 0.00 22 1011.0
20200402184654 61 302 5.0 14.0 0.00 0.01 0.00 18 1011.0
20200402183754 61 318 4.0 10.0 0.00 0.01 0.00 24 1011.2
20200402182854 61 297 5.0 13.0 0.00 0.01 0.00 26 1011.2
20200402181954 60 320 5.0 11.0 0.00 0.01 0.00 21 1011.2
20200402181055 60 312 6.0 19.0 0.00 0.01 0.00 24 1011.5
20200402180154 60 292 7.0 20.0 0.00 0.01 0.00 21 1011.5
20200402175254 60 292 5.0 14.0 0.00 0.01 0.00 21 1011.5
20200402174354 59 310 6.0 14.0 0.00 0.01 0.00 22 1011.7
20200402173454 60 326 5.0 13.0 0.00 0.01 0.00 19 1011.8
20200402172554 60 290 5.0 15.0 0.00 0.01 0.00 20 1012.0
20200402171654 59 288 5.0 18.0 0.00 0.01 0.00 25 1012.0
20200402170754 57 289 7.0 17.0 0.00 0.01 0.00 26 1012.0
20200402165854 58 282 6.0 21.0 0.00 0.01 0.00 23 1012.3
20200402164954 57 309 6.0 16.0 0.00 0.01 0.00 23 1012.5
20200402164054 57 297 8.0 23.0 0.00 0.01 0.00 23 1012.8
20200402163154 58 303 4.0 18.0 0.00 0.01 0.00 26 1012.8
20200402162254 57 292 5.0 16.0 0.00 0.01 0.00 26 1013.0
20200402161354 56 324 5.0 13.0 0.00 0.01 0.00 25 1013.2
20200402160454 56 319 5.0 16.0 0.00 0.01 0.00 26 1013.3
20200402155554 55 307 5.0 16.0 0.00 0.01 0.00 25 1013.4
20200402154654 55 312 5.0 16.0 0.00 0.01 0.00 27 1013.6
20200402153754 55 299 5.0 16.0 0.00 0.01 0.00 29 1013.6
20200402152854 55 285 4.0 12.0 0.00 0.01 0.00 25 1013.8
20200402151954 54 299 4.0 13.0 0.00 0.01 0.00 28 1014.0
20200402151054 54 296 5.0 16.0 0.00 0.01 0.00 28 1014.1
20200402150154 54 311 4.0 11.0 0.00 0.01 0.00 27 1014.1
20200402145254 54 307 3.0 8.0 0.00 0.01 0.00 30 1014.3
20200402144354 53 305 4.0 12.0 0.00 0.01 0.00 31 1014.4
20200402143454 53 273 4.0 11.0 0.00 0.01 0.00 29 1014.5
20200402142554 52 315 4.0 10.0 0.00 0.01 0.00 33 1014.5
20200402141654 52 316 2.0 5.0 0.00 0.01 0.00 32 1014.7
20200402140754 51 316 3.0 8.0 0.00 0.01 0.00 33 1014.7
20200402135854 50 284 4.0 13.0 0.00 0.01 0.00 32 1014.7
20200402134756 49 301 4.0 11.0 0.00 0.01 0.00 33 1014.6
20200402133856 49 320 3.0 9.0 0.00 0.01 0.00 32 1014.6
20200402132957 48 325 3.0 8.0 0.00 0.01 0.00 34 1014.5
20200402132056 48 347 4.0 9.0 0.00 0.01 0.00 34 1014.7
20200402131156 48 330 3.0 9.0 0.00 0.01 0.00 37 1014.5
20200402130256 48 302 3.0 10.0 0.00 0.01 0.00 41 1014.6
20200402125356 47 286 4.0 11.0 0.00 0.01 0.00 43 1014.5
20200402124456 45 304 3.0 10.0 0.00 0.01 0.00 44 1014.5
20200402123556 43 277 1.0 3.0 0.00 0.01 0.00 55 1014.5
20200402122656 41 306 2.0 4.0 0.00 0.01 0.00 56 1014.6
20200402121756 40 297 1.0 7.0 0.00 0.01 0.00 58 1014.5
20200402120856 38 252 0.0 7.0 0.00 0.01 0.00 64 1014.6
20200402115956 38 174 0.0 2.0 0.00 0.01 0.00 66 1014.6
20200402115056 37 173 0.0 2.0 0.00 0.01 0.00 63 1014.5
20200402114156 37 253 1.0 2.0 0.00 0.01 0.00 64 1014.5
20200402113256 37 267 0.0 2.0 0.00 0.01 0.00 63 1014.3
20200402112356 37 267 1.0 2.0 0.00 0.01 0.00 64 1014.3
20200402111456 37 278 1.0 3.0 0.00 0.01 0.00 64 1014.1
20200402110556 37 273 2.0 4.0 0.00 0.01 0.00 64 1014.0
20200402105656 36 276 2.0 8.0 0.00 0.01 0.00 66 1014.0
20200402104756 36 281 2.0 4.0 0.00 0.01 0.00 65 1014.0
20200402103856 36 273 2.0 8.0 0.00 0.01 0.00 65 1013.9
20200402102956 36 260 1.0 3.0 0.00 0.01 0.00 66 1013.9